C/2012 X1 (LINEAR) |
Classification: Comet SPK-ID: 1003224 |
[ hide orbit diagram ]
For accurate long-term ephemerides, please instead use our Horizons system.This orbit viewer was implemented using two-body methods, and hence should not be used for determining accurate long-term trajectories (over several years or decades) or planetary encounter circumstances.
Orbital Elements at Epoch 2456644.5 (2013-Dec-18.0) TDB
Reference: JPL 65 (heliocentric ecliptic J2000)
Element | Value | Uncertainty (1-sigma) | Units |
e | .9895711858626149 | 3.1132e-06 | |
a | 153.316517184367 | 0.045884 | au |
q | 1.598909461906966 | 1.3481e-06 | au |
i | 44.36731679876682 | 1.3273e-05 | deg |
node | 113.1464195840937 | 1.6481e-05 | deg |
peri | 132.1137001863842 | 8.0334e-05 | deg |
M | 359.9659241781679 | 1.5367e-05 | deg |
tp | 2456710.133517871476 (2014-Feb-21.63351787) | 0.00014346 | TDB |
period | 693396.8181358965 1898.42 | 311.27 0.8522 | d yr |
n | .0005191832304160427 | 2.3307e-07 | deg/d |
Q | 305.0341249068271 | 0.091289 | au |
|
Additional Model Parameters
Parameter | Value | Uncertainty (1-sigma) |
A1 [EST] | 3.613200618431053E-8 | 7.038E-10 |
A2 [EST] | 2.190183669197523E-9 | 8.502E-10 |
A3 [EST] | 5.328130630523456E-9 | 1.629E-10 |
DT [EST] | 25.92027812999656 | 2.307 |
|
| | Orbit Determination Parameters
Additional Information
|
[ show covariance matrix ]
Alternate Designations
Perihelion Year (est.) | New-Style Desig | Roman Numeral | Year/ Letter | 2014.1 | C/2012 X1 | | |
|
|